Location: Chuathbaluk
(61.5726°N, 159.2454°W)
Time: 14:28:46
(UTC+00:00)

DELFI C3 - Pass Details

Date: 21 January 2021
Orbit: 531 x 550 km, 97.4° (Epoch: 04 March)

Event Time Altitude Azimuth Distance (km) Brightness Sun altitude
Exits shadow 06:05:42 38° 326° (NW) 851 ? -26.5°
Drops below altitude 10° 06:08:19 10° 340° (NNW) 1,843 ? -26.9°
Sets 06:10:29 0° 343° (NNW) 2,743 ? -27.1°
